Regional Weather Roundup
Issued by NWS

Home | Current Version | Previous Version | Graphics & Text | Print | Product List | Glossary On
Versions: 1 2 3 4 5 6 7 8 9 10 11 12 13 14 15 16 17 18 19 20 21 22 23 24 25 26 27 28 29 30 31 32 33 34 35 36 37 38 39 40 41 42 43 44 45 46 47 48 49 50
000
ASUS43 KLSX 201207
RWRMO

WEATHER SUMMARY FOR MISSOURI
NATIONAL WEATHER SERVICE SPRINGFIELD MO
600 AM CST SAT JAN 20 2018

NOTE: "FAIR" INDICATES FEW OR NO CLOUDS BELOW 12,000 FEET WITH NO
       SIGNIFICANT WEATHER AND/OR OBSTRUCTIONS TO VISIBILITY.
       CURRENT SKY AND/OR WEATHER CONDITIONS ARE NOT AVAILABLE FOR
       CHILLICOTHE AND FARMINGTON.

MOZ001>031-035>038-043-044-053-054-201300-
...NORTHERN AND WESTERN MISSOURI...

CITY           SKY/WX    TMP DP  RH WIND       PRES   REMARKS
KANSAS CTY INT DRIZZLE   44  41  89 SW16      29.87R
6HR MIN TEMP:  41; 6HR MAX TEMP:  44; 6HR PCP: TRACE;

KANSAS C DTWN  CLOUDY    46  40  79 SW8       29.88R
6HR MIN TEMP:  42; 6HR MAX TEMP:  46;

LEE`S SUMMIT   CLOUDY    45  43  93 SW18G26   29.88R
6HR MIN TEMP:  40; 6HR MAX TEMP:  45;

ST JOSEPH      CLOUDY    38  36  92 S6        29.87R
6HR MIN TEMP:  34; 6HR MAX TEMP:  38;

CHILLICOTHE      N/A     38  34  85 S7        29.89R
6HR MIN TEMP:  34; 6HR MAX TEMP:  40;

KIRKSVILLE     CLOUDY    36  35  96 SW8       29.89R WCI  30
6HR MIN TEMP:  36; 6HR MAX TEMP:  41;


$$
MOZ066>068-077>081-088>096-101>105-201300-
...SOUTHWEST MISSOURI...

CITY           SKY/WX    TMP DP  RH WIND       PRES   REMARKS
SPRINGFIELD    CLOUDY    46  41  82 S7        29.95S
6HR MIN TEMP:  39; 6HR MAX TEMP:  50;

JOPLIN         CLOUDY    51  46  83 S20G29    29.92S
6HR MIN TEMP:  45; 6HR MAX TEMP:  51;

BRANSON        CLOUDY    50  45  81 S8        29.98S

$$
MOZ032>034-039>042-045>050-055>058-069>072-201300-
...CENTRAL MISSOURI...

CITY           SKY/WX    TMP DP  RH WIND       PRES   REMARKS
COLUMBIA       CLOUDY    35  32  88 S7        29.93R WCI  29
6HR MIN TEMP:  34; 6HR MAX TEMP:  39;

JEFFERSON CITY CLOUDY    35  31  85 CALM      29.95R
6HR MIN TEMP:  35; 6HR MAX TEMP:  45;

ROLLA          CLOUDY    39  34  82 S16       29.96S
6HR MIN TEMP:  37; 6HR MAX TEMP:  39;

SEDALIA        CLOUDY    44  41  89 SW13      29.92R
6HR MIN TEMP:  41; 6HR MAX TEMP:  47;

WHITEMAN AFB   CLOUDY    41  38  90 SW10      29.87R
WARRENSBURG    CLOUDY    43  37  81 S6        29.90S
OSAGE BEACH    CLOUDY    37  35  92 SE7       29.95S

$$
MOZ051-052-059>065-201300-
...EAST CENTRAL MISSOURI...

CITY           SKY/WX    TMP DP  RH WIND       PRES   REMARKS
ST LOUIS INTL  CLOUDY    32  27  81 SE7       29.99R WCI  26
6HR MIN TEMP:  32; 6HR MAX TEMP:  39;

SPIRIT OF STL  CLOUDY    41  33  73 SW10      29.97S
6HR MIN TEMP:  40; 6HR MAX TEMP:  43;

ST CHARLES     CLOUDY    25  22  88 SE6       29.98R WCI  18
6HR MIN TEMP:  25; 6HR MAX TEMP:  31;


$$
MOZ072>076-082>087-097>100-106>115-201300-
...SOUTH CENTRAL AND SOUTHEAST MISSOURI...

CITY           SKY/WX    TMP DP  RH WIND       PRES   REMARKS
CAPE GIRARDEAU FAIR      32  25  75 S9        30.11R WCI  24
6HR MIN TEMP:  31; 6HR MAX TEMP:  33;

FARMINGTON     CLOUDY    32  24  72 S7        30.04S WCI  26
6HR MIN TEMP:  32; 6HR MAX TEMP:  35;

POPLAR BLUFF   FAIR      33  26  75 SW5       30.09S WCI  29
6HR MIN TEMP:  33; 6HR MAX TEMP:  35;

WEST PLAINS    CLOUDY    35  26  69 S7        30.02S WCI  29
6HR MIN TEMP:  35; 6HR MAX TEMP:  40;


$$


USA.gov is the U.S. government's official web portal to all federal, state and local government web resources and services.